OBJECT L, 61904

Orbit data source: Space-Track

You're viewing an Uncataloged Satellite

Recently launched and/or uncataloged satellites may have evolving metadata. Metadata may include but not limited to: Owner, Maufacturer, Bus, Motor, and Mission.

OBJECT L, 61904 is a satellite owned by Yunyao yuhang (CN) in SSO that was launched on Mon, 11 Nov 2024 UTC via a LIJIAN-1 launch vehicle from the Jiuquan Satellite Launch Center, China (JSC). Unknown objects in Earth's orbit typically refer to objects detected orbiting the Earth but have not yet been identified or cataloged. These objects could be anything from previously untracked satellites, spent rocket stages, debris from satellite collisions, or even natural meteoroids temporarily captured by Earth's gravity.

Loading next visibility...
OBJECT L details
Identifier
61904, 2024-205L
Orbit
SSO
Last TLE update11 hours ago
Origin
Flag of CNYunyao yuhang (CN / PRC)
ManufacturerYunyao yuhang
MissionOperational spacecraft
Bus & MotorYY-1, Unknown motor
Mass~50 kg wet, ~50 kg dry
Launch date (UTC)
2024-11-11 (1 month ago)
Launch vehicle
LIJIAN-1
Launch site
Jiuquan Satellite Launch Center, China (JSC)
Object typeUnknown
Shape & HBRUnknown
Radar Cross SectionMedium (>0.1 m² and <1 m²)

Expand to show TLE details & history

TLE from 11 hours ago
0 OBJECT L
1 61904U 24205L   24348.50625242  .00015717  00000-0  82162-3 0  9993
2 61904  97.4742  60.1505 0014645 169.3067 190.8480 15.15865541  4863
Epoch: 2024-12-13T12:09Z
Definitive object data (Epoch: 2024-12-13T12:09:00.209Z)
Latitude0.00001°
Longitude155.22837°
Altitude531.357 km
Speed7.592 km/s
True Right ascension04h 00m 36s
True Declination0° 00' 00"
Sunlit
Object was in full shadow at TLE epoch
Visualization TLE readout
Latitude-44.51576°
Longitude163.04581°
Altitude544.053 km
Speed7.584 km/s
Apparent Right ascension07h 02m 23s
Apparent Declination-48° 52' 09"
Sunlit
Object is in daylight
Visualization observer readout
Local Sidereal Time21:34:31
Azimuth121.181° SE
Elevation-61.725°
Doppler factor1
Orbital elements
Apogee altitude525.422 km
Perigee altitude505.231 km
Semi-major axis6,893.463 km
Eccentricity0.0014645
Inclination97.4742°
RAAN60.1505°
Arg. of periapsis169.3067°
True anomaly190.81647°
Mean anomaly190.848°
Eccentric anomaly190.83223°
Mean motion3.79216 °/min
BSTAR0.00082162
Orbital period94.93 mins
Loading maneuver chart data...
Loading historical data...
Loading historical data...
Loading historical data...
Loading historical data...
Loading historical data...
Loading historical data...
Loading historical data...

OBJECT L Visibility forecast

Observer location: undefined°, undefined

Span
Click to sort rows by Start time (UTC) header in descending order
Start Az.
Max El. time (UTC)
Max El. Az.
Max El.
End time (UTC)
End Az.
5 mins2024-12-14 04:08:30.923Z112.029° ESE2024-12-14 04:10:30.923Z79.01° E17.739°2024-12-14 04:13:30.923Z24.745° NE
4 mins2024-12-14 05:43:30.923Z228.118° WSW2024-12-14 05:44:30.923Z252.125° W24.083°2024-12-14 05:47:30.923Z316.951° NNW
4 mins2024-12-14 17:15:30.923Z55.39° ENE2024-12-14 17:17:30.923Z107.018° ESE24.342°2024-12-14 17:19:30.923Z148.037° SSE
|